CAPE
0 0 0 0 0 0 0 0 0 0 0 0 0 0 0 0 0 0 0 0 0 0 0 0 0 0 1 2 345 513 403 243 216 124 18 10 11 3 3 16 9 5 0
0 0 0 0 0 0 0 0 0 0 0 0 0 0 0 0 0 0 0 0 0 0 0 0 0 0 0 0 4 12 518 449 349 287 165 42 6 11 4 10 8 7 3
0 0 0 0 0 0 0 0 0 0 0 0 0 0 0 0 0 0 0 0 0 0 0 0 0 0 0 0 0 4 28 330 493 455 408 222 117 12 6 3 8 4 5
0 0 0 0 0 0 0 0 0 0 0 0 0 0 0 0 0 0 0 0 0 0 0 0 0 0 0 0 0 0 3 62 0 97 161 459 265 201 99 13 4 6 2
0 0 0 0 0 0 0 0 0 0 0 0 0 0 0 0 0 0 0 0 0 0 0 0 0 0 0 0 0 0 0 1 2 0 4 51 411 290 211 119 42 6 3
0 0 0 0 0 0 0 0 0 0 0 0 0 0 0 0 0 0 0 0 0 0 0 0 0 0 0 0 0 0 0 0 0 0 0 1 26 477 352 252 141 72 32
0 0 0 0 0 0 0 0 0 0 0 0 0 0 0 0 0 0 0 0 0 0 0 0 0 0 0 0 0 0 0 0 0 5 0 0 1 0 317 380 269 163 97
2 3 2 2 1 0 0 0 0 0 0 0 0 0 0 0 0 0 0 0 0 0 0 0 0 0 0 0 0 0 0 0 0 0 0 3 2 27 28 160 422 316 198
2 4 4 6 5 2 0 0 0 0 0 0 0 0 0 0 0 0 0 0 0 0 0 0 0 0 0 0 0 0 0 0 0 0 0 0 0 0 2 56 7 222 285
3 3 3 3 5 6 0 0 0 0 0 0 0 0 0 0 0 0 0 0 0 0 0 0 0 0 0 0 0 0 0 0 0 0 0 0 0 0 3 3 18 35 90
6 8 4 5 6 6 3 2 0 0 0 0 0 0 0 0 0 0 0 0 0 0 0 0 0 0 0 0 0 0 0 0 0 0 0 0 0 0 1 3 1 0 52
5 3 3 6 6 5 4 8 9 0 0 0 0 0 0 0 0 0 0 0 0 0 0 0 0 0 0 0 0 0 0 0 0 0 0 0 0 0 0 0 0 1 0
2 2 2 3 4 4 8 8 6 0 0 0 0 0 0 0 0 0 0 0 0 0 0 0 0 0 0 0 0 0 0 0 0 0 0 0 0 0 0 0 0 0 0
2 2 9 4 2 4 5 8 2 4 0 0 0 0 0 0 0 0 0 0 0 0 0 0 0 0 0 0 0 0 0 0 0 0 0 0 0 0 0 0 0 0 0
6 20 11 7 5 4 3 3 3 6 5 0 0 0 0 0 0 0 0 0 0 0 0 0 0 0 0 0 0 0 0 0 0 0 0 0 0 0 0 0 0 0 0
5 20 9 1 0 1 4 3 0 0 4 3 1 0 0 0 0 0 0 0 0 0 0 0 0 0 0 0 0 0 0 0 0 0 0 0 0 0 0 0 0 0 0
2 17 9 2 2 0 0 2 1 1 3 4 2 5 3 1 0 0 0 0 0 0 0 0 0 0 0 0 0 0 0 0 0 0 0 0 0 0 0 0 0 0 0
6 2 11 4 1 1 0 0 0 3 4 2 1 4 3 5 4 1 0 0 0 0 0 0 0 0 0 0 0 0 0 0 0 0 0 0 0 2 3 0 0 0 0
1 7 3 2 1 4 1 3 2 0 2 2 1 2 5 2 2 0 0 0 0 0 0 0 0 0 0 0 0 0 0 0 0 0 0 0 1 2 3 3 0 0 0
0 2 10 5 3 0 1 1 2 1 3 2 5 8 4 2 0 2 0 0 0 0 0 0 0 0 0 0 0 0 0 0 0 0 0 0 3 2 3 4 0 0 0
0 0 3 9 4 2 1 0 0 2 0 2 4 8 16 8 21 7 0 0 0 0 0 0 0 0 0 0 0 0 0 0 0 0 0 0 0 0 0 1 9 3 0
0 0 0 4 6 5 7 5 0 0 1 3 1 1 1 9 16 35 48 21 0 0 0 0 0 0 0 0 0 0 0 0 0 1 0 0 2 3 1 1 6 40 9
0 0 0 1 13 11 14 5 3 0 2 3 1 4 2 1 4 2 5 3 1 12 13 0 0 0 0 0 0 0 0 0 0 1 0 0 2 0 0 3 6 3 5
0 0 0 0 3 26 24 13 5 2 2 1 2 2 1 0 0 0 0 0 0 0 0 0 0 0 0 0 0 0 0 1 1 0 0 0 0 0 0 2 15 4 4
0 0 0 0 1 13 21 12 1 1 1 2 2 1 1 1 4 3 1 1 1 1 3 4 3 1 2 5 2 1 1 1 0 0 0 0 0 0 0 0 1 6 9
0 0 0 0 0 0 21 11 0 0 1 0 2 10 21 9 5 2 0 1 0 0 0 0 0 0 1 4 3 1 0 0 0 0 0 0 0 0 0 1 0 0 2
CIN
-0 -0 -0 -0 -0 -0 -0 -0 -0 -0 -0 -0 -0 -0 -0 -0 -0 -0 -0 -0 -0 -0 -0 -0 -0 -0 -0 -0 -5 -0 -0 -1 -0 -1 -2 -1 -1 -0 -0 -0 -0 -0 -0
-0 -0 -0 -0 -0 -0 -0 -0 -0 -0 -0 -0 -0 -0 -0 -0 -0 -0 -0 -0 -0 -0 -0 -0 -0 -0 -0 -0 -0 -2 -0 -0 -0 -0 -0 -3 -1 -1 -0 -0 -0 -0 -0
-0 -0 -0 -0 -0 -0 -0 -0 -0 -0 -0 -0 -0 -0 -0 -0 -0 -0 -0 -0 -0 -0 -0 -0 -0 -0 -0 -0 -0 -0 -32 -0 -3 -5 -0 -0 -0 -4 -1 -1 -0 -0 -0
-0 -0 -0 -0 -0 -0 -0 -0 -0 -0 -0 -0 -0 -0 -0 -0 -0 -0 -0 -0 -0 -0 -0 -0 -0 -0 -0 -0 -0 -0 -0 -10 -1 -15 -17 -0 -1 -0 -1 -3 -0 -0 -0
-0 -0 -0 -0 -0 -0 -0 -0 -0 -0 -0 -0 -0 -0 -0 -0 -0 -0 -0 -0 -0 -0 -0 -0 -0 -0 -0 -0 -0 -0 -0 -0 -101 -0 -3 -84 -0 -1 -0 -0 -2 -0 -0
-4 -0 -0 -0 -0 -0 -0 -0 -0 -0 -0 -0 -0 -0 -0 -0 -0 -0 -0 -0 -0 -0 -0 -0 -0 -0 -0 -0 -0 -0 -0 -0 -0 -0 -0 -78 -31 -0 -0 -1 -1 -1 -0
-0 -0 -0 -0 -0 -0 -0 -0 -0 -0 -0 -0 -0 -0 -0 -0 -0 -0 -0 -0 -0 -0 -0 -0 -0 -0 -0 -0 -0 -0 -0 -0 -0 -1 -0 -0 -0 -0 -5 -0 -1 -1 -0
-0 -0 -1 -0 -2 -0 -0 -0 -0 -0 -0 -0 -0 -0 -0 -0 -0 -0 -0 -0 -0 -0 -0 -0 -0 -0 -0 -0 -0 -0 -0 -0 -0 -0 -0 -1 -0 -20 -4 -16 -0 -0 -0
-0 -0 -2 -0 -0 -1 -0 -0 -0 -0 -0 -0 -0 -0 -0 -0 -0 -0 -0 -0 -0 -0 -0 -0 -0 -0 -0 -0 -0 -0 -0 -0 -0 -0 -0 -0 -0 -35 -37 -5 -16 -1 -0
-0 -0 -0 -0 -0 -0 -0 -1 -0 -0 -0 -0 -0 -0 -0 -0 -0 -0 -0 -0 -0 -0 -0 -0 -0 -0 -0 -0 -0 -0 -0 -0 -0 -0 -0 -0 -0 -0 -0 -0 -11 -9 -14
-0 -0 -0 -0 -0 -0 -0 -0 -0 -0 -0 -0 -0 -0 -0 -0 -0 -0 -0 -0 -0 -0 -0 -0 -0 -0 -0 -0 -0 -0 -0 -0 -0 -0 -0 -0 -0 -0 -0 -0 -0 -0 -12
-0 -0 -0 -0 -0 -0 -0 -0 -0 -0 -0 -0 -0 -0 -0 -0 -0 -0 -0 -0 -0 -0 -0 -0 -0 -0 -0 -0 -0 -0 -0 -0 -0 -0 -0 -0 -0 -0 -0 -0 -0 -0 -0
-0 -0 -0 -0 -0 -0 -0 -1 -0 -0 -0 -0 -0 -0 -0 -0 -0 -0 -0 -0 -0 -0 -0 -0 -0 -0 -0 -0 -0 -0 -0 -0 -0 -0 -0 -0 -0 -0 -0 -0 -0 -0 -0
-0 -0 -0 -0 -0 -0 -1 -4 -0 -0 -0 -0 -0 -0 -0 -0 -0 -0 -0 -0 -0 -0 -0 -0 -0 -0 -0 -0 -0 -0 -0 -0 -0 -0 -0 -0 -0 -0 -0 -0 -0 -0 -0
-0 -0 -0 -0 -0 -0 -1 -1 -0 -0 -0 -0 -0 -0 -0 -0 -0 -0 -0 -0 -0 -0 -0 -0 -0 -0 -0 -0 -0 -0 -0 -0 -0 -0 -0 -0 -0 -0 -0 -0 -0 -0 -0
-0 -0 -2 -7 -10 -1 -2 -0 -0 -0 -0 -0 -0 -0 -0 -0 -0 -0 -0 -0 -0 -0 -0 -0 -0 -0 -0 -0 -0 -0 -0 -0 -0 -0 -0 -0 -0 -0 -0 -0 -0 -0 -0
-0 -1 -5 -10 -10 -0 -5 -1 -0 -0 -0 -0 -0 -0 -0 -0 -0 -0 -0 -0 -0 -0 -0 -0 -0 -0 -0 -0 -0 -0 -0 -0 -0 -0 -0 -0 -0 -0 -0 -0 -0 -0 -0
-0 -0 -0 -2 -8 -5 -6 -0 -0 -1 -0 -0 -0 -0 -0 -1 -0 -0 -0 -0 -0 -0 -0 -0 -0 -0 -0 -0 -0 -0 -0 -0 -0 -0 -0 -0 -0 -0 -0 -0 -0 -0 -0
-0 -0 -0 -0 -0 -2 -6 -8 -8 -3 -3 -7 -0 -1 -3 -7 -0 -0 -0 -0 -0 -0 -0 -0 -0 -0 -0 -0 -0 -0 -0 -0 -0 -0 -0 -0 -0 -0 -0 -0 -0 -0 -0
-0 -2 -0 -0 -0 -0 -0 -4 -11 -12 -9 -8 -4 -6 -6 -0 -4 -6 -1 -0 -0 -0 -0 -0 -0 -0 -0 -0 -0 -0 -0 -0 -0 -0 -0 -0 -0 -0 -0 -0 -0 -0 -0
-0 -0 -3 -0 -0 -0 -0 -0 -0 -8 -2 -5 -6 -2 -2 -2 -1 -0 -0 -0 -0 -0 -0 -0 -0 -0 -0 -0 -0 -0 -0 -0 -0 -0 -0 -0 -0 -0 -0 -3 -9 -1 -0
-0 -0 -0 -0 -0 -0 -0 -0 -0 -7 -0 -0 -3 -4 -6 -1 -2 -0 -0 -1 -0 -0 -0 -0 -0 -0 -0 -0 -0 -0 -0 -0 -0 -0 -0 -0 -0 -0 -0 -0 -14 -3 -0
-0 -0 -0 -0 -0 -0 -0 -0 -0 -0 -0 -0 -0 -1 -3 -0 -0 -3 -1 -2 -1 -5 -2 -0 -1 -0 -0 -0 -0 -0 -0 -0 -0 -0 -0 -0 -0 -0 -0 -0 -0 -0 -0
-0 -0 -0 -0 -2 -0 -0 -0 -0 -0 -0 -0 -0 -0 -0 -0 -0 -0 -0 -0 -0 -0 -0 -0 -0 -0 -0 -0 -0 -0 -0 -0 -0 -0 -0 -0 -0 -0 -0 -0 -0 -0 -0
-0 -0 -0 -0 -0 -2 -1 -0 -0 -0 -0 -0 -0 -0 -0 -0 -0 -0 -0 -0 -0 -0 -0 -0 -0 -0 -0 -0 -0 -0 -0 -0 -0 -0 -0 -0 -0 -0 -0 -0 -0 -0 -0
-0 -0 -0 -0 -0 -0 -1 -1 -1 -0 -1 -0 -0 -1 -0 -0 -0 -0 -0 -0 -0 -0 -0 -0 -0 -0 -0 -0 -0 -0 -0 -0 -0 -0 -0 -0 -0 -0 -0 -0 -0 -0 -0
Wind_Speed
34 36 38 37 39 38 38 42 44 43 44 43 40 40 38 36 35 34 33 33 33 32 31 30 28 29 32 35 35 34 30 27 26 24 23 22 20 20 19 16 13 12 10
33 31 30 36 38 37 38 38 38 41 43 42 41 40 39 38 37 36 35 35 34 33 32 31 30 31 31 34 38 36 32 30 28 28 26 24 22 22 20 19 16 14 13
34 30 28 26 31 37 37 37 39 38 38 41 43 41 40 40 40 40 38 36 36 36 34 33 33 33 34 33 36 33 17 29 33 34 34 30 26 23 21 21 18 17 15
35 33 30 28 27 29 34 38 40 39 38 38 42 43 42 42 41 41 40 38 37 37 37 37 36 36 36 38 37 36 33 29 32 32 33 35 32 29 25 22 21 19 17
34 34 34 31 29 28 29 36 39 38 39 40 40 43 43 44 43 41 41 41 39 38 39 39 39 38 38 39 39 39 37 37 32 34 41 30 34 33 31 28 23 20 17
31 31 31 31 30 29 27 28 36 36 38 40 40 40 42 42 42 42 42 42 43 43 41 41 40 39 38 36 34 35 37 38 38 37 36 35 37 37 34 31 28 24 21
33 32 30 29 27 26 25 24 30 38 41 38 40 41 39 39 40 42 42 43 44 44 42 43 43 41 37 36 35 33 31 30 29 30 37 35 37 30 40 33 30 28 25
34 33 29 27 24 25 24 22 28 33 38 36 39 36 41 41 40 41 42 42 42 41 42 41 40 41 39 37 35 34 33 32 31 33 35 36 37 36 30 33 32 32 29
31 29 27 24 21 21 21 21 23 27 36 36 35 35 33 41 37 37 39 40 42 41 40 39 38 37 38 37 36 33 32 33 32 33 35 35 36 38 37 31 31 43 33
27 26 22 20 19 17 17 18 20 23 32 33 29 32 32 28 33 39 35 36 37 41 38 38 37 36 38 38 36 33 32 32 34 36 36 35 36 37 37 40 36 33 28
34 22 20 17 15 14 14 15 16 20 28 32 33 32 31 29 33 38 43 37 36 36 38 38 40 38 36 38 36 35 34 34 35 37 39 39 39 37 38 39 41 38 33
30 28 23 16 12 10 10 12 13 16 26 33 35 35 32 30 30 33 37 36 38 38 37 38 39 40 36 34 34 35 36 36 36 36 38 40 41 42 42 41 44 43 40
32 38 32 16 11 9 7 6 9 11 24 30 30 31 32 31 30 33 35 37 38 36 36 36 36 35 35 35 34 35 36 38 39 40 40 41 43 45 46 45 44 46 45
30 37 35 32 15 12 8 4 2 6 18 27 30 33 33 32 31 31 34 35 39 36 34 35 31 34 37 37 36 36 37 39 41 43 44 43 45 47 48 49 49 47 47
33 32 31 28 22 17 11 7 4 1 8 21 25 28 30 34 35 35 33 32 33 39 39 33 35 31 33 36 37 36 37 39 41 43 44 47 48 49 50 52 52 52 51
36 32 30 28 25 20 13 11 4 4 2 11 17 19 24 27 30 31 30 29 29 32 40 32 33 31 31 32 35 36 38 40 41 43 45 47 51 52 53 54 55 55 55
39 33 31 28 25 23 16 13 9 5 5 12 16 18 22 24 24 24 26 27 28 28 34 31 29 28 31 33 36 37 38 40 41 43 46 49 51 55 57 58 58 57 57
41 40 33 28 26 21 14 13 10 7 6 6 17 17 24 24 28 30 28 27 27 27 28 30 30 31 34 33 35 38 38 39 41 44 46 49 52 55 58 61 62 60 59
45 42 38 34 28 16 11 10 10 9 9 8 7 14 16 20 24 25 28 31 30 30 29 30 30 30 31 31 35 34 36 39 40 42 45 48 50 54 58 61 63 62 60
46 42 43 37 30 26 7 8 11 12 11 10 8 9 15 15 6 24 27 29 30 33 31 31 30 32 34 33 32 36 40 37 41 40 43 45 49 50 52 56 59 62 59
46 47 44 37 30 20 14 14 14 13 12 12 10 14 14 13 13 11 21 26 25 27 28 29 30 30 30 30 33 32 36 37 37 36 39 40 43 44 46 49 51 53 53
35 34 24 30 30 23 20 15 14 12 12 11 11 12 12 15 17 20 22 24 20 20 25 25 29 33 33 31 30 30 32 34 37 28 32 34 32 32 31 34 36 39 47
32 31 22 23 25 28 24 21 20 16 20 14 11 13 11 12 15 17 18 15 16 22 27 30 34 34 33 32 29 30 30 29 29 27 25 28 25 27 28 26 23 21 22
32 33 29 19 19 30 29 27 24 25 26 26 26 22 15 5 13 13 3 17 17 18 22 25 28 30 31 32 33 32 22 20 20 21 20 23 22 21 21 23 19 17 16
35 33 32 23 20 25 33 31 27 27 30 32 32 31 26 22 19 17 14 13 14 16 17 17 20 23 25 25 10 9 10 13 18 17 18 17 17 16 16 18 17 15 15
35 36 33 29 21 17 34 34 32 30 30 26 16 9 32 30 22 17 13 11 12 13 14 13 13 13 13 12 10 9 5 10 10 15 18 15 17 18 18 18 17 16 15
Wind_Direction
314 308 304 299 298 294 293 287 283 280 277 273 271 269 269 271 273 274 274 276 274 274 275 276 277 275 269 270 264 254 248 246 247 247 247 248 248 251 253 254 256 259 263
319 317 311 302 297 293 293 290 287 282 277 274 268 267 267 268 270 272 273 273 272 273 273 273 274 272 273 272 268 277 241 244 246 248 248 248 247 249 251 252 253 255 260
317 316 314 311 302 296 292 289 287 285 282 274 269 266 266 267 267 267 270 271 270 270 270 272 272 273 271 274 271 278 261 249 247 250 251 250 250 248 249 252 251 255 257
316 316 315 311 308 302 293 288 285 283 280 279 271 266 265 265 266 267 266 268 268 268 269 270 272 271 271 271 271 266 263 263 259 260 261 251 250 249 249 250 251 254 255
316 314 312 309 306 303 297 289 284 280 278 277 276 269 266 264 263 265 265 264 266 267 268 269 269 271 270 269 268 268 265 255 259 265 260 262 250 249 249 251 252 252 252
321 320 317 314 310 301 294 290 285 279 277 275 276 274 267 264 262 262 263 264 264 265 267 267 268 269 268 268 270 270 267 259 262 265 257 258 262 248 249 251 253 253 253
319 318 319 318 314 304 297 288 285 278 274 274 273 273 271 266 263 261 262 264 264 263 265 266 266 265 265 265 268 271 271 274 275 274 259 265 256 266 255 253 253 254 254
319 318 320 320 315 310 302 290 285 281 273 270 267 271 267 266 264 263 262 263 262 262 265 266 265 261 262 264 266 268 269 271 273 269 264 265 266 261 268 264 257 258 255
325 323 323 321 316 311 303 294 285 279 274 269 261 264 268 264 265 265 264 262 261 262 263 263 266 262 260 263 265 266 268 269 270 270 271 273 274 266 268 274 271 263 253
332 330 327 323 319 312 304 299 288 280 275 266 263 260 266 277 265 261 263 263 262 261 261 261 264 264 262 262 262 265 268 269 270 269 271 273 274 273 272 264 269 271 280
332 336 331 326 320 317 305 299 292 278 271 266 265 264 265 272 269 264 260 264 263 262 261 264 263 262 263 262 261 264 268 270 271 271 270 269 269 273 273 271 264 265 272
345 344 342 335 325 318 308 304 287 281 271 268 267 264 264 265 269 265 262 263 262 263 266 264 263 261 262 260 262 265 267 269 272 272 271 270 269 269 271 271 263 263 266
353 334 343 341 338 337 323 312 307 275 273 270 269 266 263 263 265 267 266 264 264 268 267 267 263 259 259 262 264 266 268 269 271 272 272 271 269 269 268 269 269 266 264
1 339 349 349 11 9 8 8 298 297 285 273 272 268 264 263 263 264 265 265 263 268 269 265 265 262 262 261 265 267 269 270 271 271 271 271 270 269 268 268 267 268 266
5 2 0 3 10 21 32 39 48 103 297 284 279 274 269 264 263 263 263 264 264 262 263 266 265 269 267 264 264 267 270 272 271 272 271 271 272 270 268 266 266 265 265
359 11 11 9 10 22 42 41 97 120 345 304 294 286 276 271 265 262 264 264 265 266 264 269 268 271 271 268 266 268 270 272 273 273 273 272 271 270 269 267 265 263 262
360 6 8 12 10 15 37 42 64 113 41 322 301 292 282 275 270 269 266 267 267 267 266 271 272 274 271 272 271 271 271 271 274 276 276 274 272 270 269 267 264 263 261
1 356 4 7 9 21 49 56 66 83 56 359 310 299 286 282 270 265 268 270 269 269 270 270 273 273 273 276 275 273 272 273 275 278 278 276 274 271 268 267 264 262 260
5 5 3 355 356 31 55 79 88 98 116 131 10 321 308 294 277 276 268 267 270 270 270 272 274 276 277 279 276 276 275 275 277 279 280 278 276 273 270 267 263 260 259
11 9 5 355 326 309 213 116 117 106 116 124 106 151 180 181 297 281 273 270 270 269 268 272 276 274 275 276 278 276 274 279 279 282 282 279 279 276 273 269 265 258 257
22 15 360 347 338 299 270 131 131 124 113 113 128 199 172 161 165 163 282 272 274 274 272 272 275 275 275 273 275 279 278 280 283 287 284 284 282 279 276 273 268 258 254
41 43 354 349 351 339 332 135 133 127 112 112 122 143 174 182 192 204 209 205 192 280 273 275 270 265 266 275 280 279 281 282 281 290 285 284 288 281 287 282 273 264 253
47 49 43 5 360 3 3 1 353 62 63 105 119 111 130 137 186 189 186 249 269 219 217 222 238 249 258 266 276 277 281 283 283 288 287 284 291 285 289 288 286 270 261
49 51 53 26 16 12 15 15 12 18 23 14 18 38 68 151 128 129 247 254 271 270 257 250 237 228 228 233 237 266 283 289 291 291 287 285 291 287 294 289 287 277 266
53 55 58 56 23 11 17 15 12 13 22 33 41 31 19 2 354 19 345 332 322 313 308 312 290 282 279 280 303 301 290 292 291 287 295 286 288 293 294 297 292 297 276
58 60 61 63 58 23 16 18 18 16 19 12 4 21 27 31 18 9 355 340 338 317 314 297 294 303 314 331 331 334 333 294 283 281 294 286 283 284 282 291 295 299 286